Simultaneous Nadir Overpasses (SNOs) Predictions

Prediction of SNOs between LANDSAT-8 and NPP Satellite Orbit:

Table of predicted SNOs for the next 14.0 days since TLE Epoch: 8/10/2024
Index Date (LANDSAT-8) Time (LANDSAT-8) Lat,Lon (LANDSAT-8) SZA (LANDSAT-8 ) Date (NPP) Time (NPP) Lat,Lon (NPP) SZA (NPP ) Distance(km) Time Diff (sec)
1 08/10/2024 13:51:57 -70.53, 148.99 124.82 08/10/2024 13:50:46 -70.56, 147.89 124.74 41.15 71
2 08/10/2024 14:41:31 70.05, -44.06 54.74 08/10/2024 14:41:23 70.07, -44.03 54.75 1.94 8
3 08/10/2024 15:31:01 -69.94, 123.42 125.37 08/10/2024 15:32:04 -69.94, 123.49 125.38 2.75 63
4 08/13/2024 06:08:36 -70.16, -95.68 124.37 08/13/2024 06:07:34 -70.14, -95.68 124.38 2.37 62
5 08/13/2024 06:58:04 70.00, 71.75 55.49 08/13/2024 06:58:18 70.01, 71.82 55.50 2.96 14
6 08/13/2024 07:47:42 -69.45,-121.38 125.02 08/13/2024 07:48:51 -69.46,-120.04 125.07 52.11 69
7 08/15/2024 22:25:08 -70.11, 20.12 123.59 08/15/2024 22:24:29 -70.10, 20.15 123.60 1.51 39
8 08/15/2024 23:14:35 70.00,-172.38 56.32 08/15/2024 23:15:13 69.98,-172.36 56.29 2.74 38
9 08/18/2024 13:52:01 70.59, -30.93 57.72 08/18/2024 13:50:51 70.64, -32.25 57.82 49.25 70
10 08/18/2024 14:41:39 -70.04, 135.92 122.80 08/18/2024 14:41:24 -70.07, 135.96 122.77 3.24 15
11 08/18/2024 15:31:06 69.93, -56.60 57.11 08/18/2024 15:32:08 69.96, -56.56 57.13 2.96 62
12 08/21/2024 06:08:37 70.13, 84.29 58.15 08/21/2024 06:07:36 70.16, 84.28 58.19 3.41 61
13 08/21/2024 06:58:07 -70.03,-108.22 121.94 08/21/2024 06:58:17 -70.01,-108.18 121.96 2.73 10
14 08/21/2024 07:47:43 69.41, 58.58 57.49 08/21/2024 07:48:52 69.42, 60.00 57.45 55.34 69
15 08/23/2024 22:25:05 70.10,-159.86 59.02 08/23/2024 22:24:30 70.12,-159.89 59.05 2.28 35
16 08/23/2024 23:14:35 -70.00, 7.63 121.06 08/23/2024 23:15:12 -70.01, 7.58 121.05 2.34 37



Historial Predications of SNOs between LANDSAT-8 and NPP
